BWA225 TTPP-TTCP

Flight info

Callsign BWA225
Flight time 0h 13m
Altitude 9000
Route SASIM DCT NOTEL
Aircraft B738/M-SDE2E3FGHIRWXY/LB1

Departure

Time 2026-04-27 23:54
Airport Piarco International Airport (TTPP)

Arrival

Time 2026-04-28 00:07
Airport A.N.R. Robinson International Airport (TTCP)
Time Latitude Longitude Altitude Speed Heading
2026-04-27 23:41 10.59964 -61.33942 66 ft 0 kts 19°
2026-04-27 23:43 10.59960 -61.33943 66 ft 3 kts 19°
2026-04-27 23:43 10.59934 -61.33951 66 ft 4 kts 13°
2026-04-27 23:44 10.59908 -61.33958 66 ft 4 kts 16°
2026-04-27 23:44 10.59882 -61.33966 66 ft 4 kts 21°
2026-04-27 23:44 10.59858 -61.33978 66 ft 4 kts 34°
2026-04-27 23:44 10.59840 -61.33995 66 ft 4 kts 71°
2026-04-27 23:45 10.59838 -61.34005 66 ft 0 kts 90°
2026-04-27 23:48 10.59838 -61.34004 66 ft 0 kts 90°
2026-04-27 23:49 10.59837 -61.33965 66 ft 14 kts 91°
2026-04-27 23:49 10.59834 -61.33848 66 ft 17 kts 91°
2026-04-27 23:49 10.59814 -61.33743 66 ft 11 kts 140°
2026-04-27 23:50 10.59743 -61.33725 66 ft 15 kts 172°
2026-04-27 23:50 10.59702 -61.33784 66 ft 15 kts 288°
2026-04-27 23:50 10.59713 -61.33893 66 ft 17 kts 272°
2026-04-27 23:50 10.59716 -61.34027 66 ft 22 kts 270°
2026-04-27 23:51 10.59714 -61.34184 66 ft 22 kts 269°
2026-04-27 23:51 10.59705 -61.34337 66 ft 21 kts 266°
2026-04-27 23:51 10.59691 -61.34482 66 ft 20 kts 255°
2026-04-27 23:51 10.59631 -61.34552 66 ft 5 kts 175°
2026-04-27 23:52 10.59567 -61.34546 66 ft 18 kts 180°
2026-04-27 23:52 10.59536 -61.34623 66 ft 14 kts 271°
2026-04-27 23:52 10.59539 -61.34794 66 ft 34 kts 270°
2026-04-27 23:52 10.59536 -61.35068 66 ft 27 kts 272°
2026-04-27 23:53 10.59536 -61.35155 66 ft 8 kts 174°
2026-04-27 23:53 10.59534 -61.35066 66 ft 39 kts 94°
2026-04-27 23:53 10.59524 -61.34494 66 ft 120 kts 89°
2026-04-27 23:53 10.59517 -61.33415 163 ft 178 kts 92°
2026-04-27 23:54 10.59441 -61.32045 725 ft 209 kts 95°
2026-04-27 23:54 10.59301 -61.30505 1561 ft 228 kts 95°
2026-04-27 23:54 10.59281 -61.28917 2569 ft 219 kts 88°
2026-04-27 23:54 10.59364 -61.27437 3699 ft 208 kts 83°
2026-04-27 23:55 10.60047 -61.26078 4243 ft 231 kts 48°
2026-04-27 23:55 10.61541 -61.25328 4828 ft 255 kts 14°
2026-04-27 23:55 10.63374 -61.25233 5431 ft 273 kts
2026-04-27 23:55 10.65312 -61.25218 6120 ft 283 kts
2026-04-27 23:56 10.67301 -61.25105 6876 ft 289 kts
2026-04-27 23:56 10.69322 -61.24852 7631 ft 295 kts 12°
2026-04-27 23:56 10.71349 -61.24451 8373 ft 300 kts 16°
2026-04-27 23:56 10.73394 -61.23909 8813 ft 316 kts 19°
2026-04-27 23:57 10.75607 -61.23340 9001 ft 341 kts 15°
2026-04-27 23:57 10.77973 -61.22674 9016 ft 361 kts 21°
2026-04-27 23:57 10.80331 -61.21727 9013 ft 368 kts 27°
2026-04-27 23:57 10.82638 -61.20562 9008 ft 371 kts 30°
2026-04-27 23:58 10.84899 -61.19285 9004 ft 371 kts 32°
2026-04-27 23:58 10.87139 -61.17978 8784 ft 372 kts 32°
2026-04-27 23:58 10.89391 -61.16679 8231 ft 372 kts 32°
2026-04-27 23:58 10.91649 -61.15383 7680 ft 372 kts 32°
2026-04-27 23:59 10.93899 -61.14093 7129 ft 369 kts 32°
2026-04-27 23:59 10.96113 -61.12825 6573 ft 356 kts 32°
2026-04-27 23:59 10.98206 -61.11625 6018 ft 333 kts 32°
2026-04-27 23:59 11.00173 -61.10498 5466 ft 316 kts 32°
2026-04-28 00:00 11.02040 -61.09428 4915 ft 301 kts 32°
2026-04-28 00:00 11.03830 -61.08402 4362 ft 289 kts 32°
2026-04-28 00:00 11.05547 -61.07418 3811 ft 279 kts 33°
2026-04-28 00:00 11.07189 -61.06477 3266 ft 270 kts 33°
2026-04-28 00:01 11.08804 -61.05551 2713 ft 262 kts 33°
2026-04-28 00:01 11.10355 -61.04661 2435 ft 252 kts 33°
2026-04-28 00:01 11.11863 -61.03797 2354 ft 245 kts 33°
2026-04-28 00:01 11.13334 -61.02955 2316 ft 235 kts 33°
2026-04-28 00:02 11.14702 -61.02171 2278 ft 218 kts 33°
2026-04-28 00:02 11.15904 -61.01316 2182 ft 204 kts 49°
2026-04-28 00:02 11.16383 -61.00081 2113 ft 179 kts 87°
2026-04-28 00:02 11.16277 -60.98900 2136 ft 159 kts 98°
2026-04-28 00:03 11.16110 -60.97834 2074 ft 148 kts 98°
2026-04-28 00:03 11.15996 -60.96814 1939 ft 140 kts 95°
2026-04-28 00:03 11.15913 -60.95846 1784 ft 136 kts 95°
2026-04-28 00:03 11.15833 -60.94880 1536 ft 137 kts 95°
2026-04-28 00:04 11.15751 -60.93906 1292 ft 145 kts 94°
2026-04-28 00:04 11.15547 -60.91878 919 ft 141 kts 97°
2026-04-28 00:04 11.15403 -60.90892 892 ft 142 kts 97°
2026-04-28 00:05 11.15273 -60.89893 858 ft 143 kts 96°
2026-04-28 00:05 11.15192 -60.88885 791 ft 143 kts 91°
2026-04-28 00:05 11.15167 -60.87879 719 ft 142 kts 90°
2026-04-28 00:05 11.15156 -60.87198 631 ft 142 kts 90°
2026-04-28 00:06 11.15109 -60.85863 327 ft 141 kts 92°
2026-04-28 00:06 11.15072 -60.84867 112 ft 141 kts 91°
2026-04-28 00:06 11.15012 -60.83915 17 ft 126 kts 93°
2026-04-28 00:06 11.14963 -60.83169 8 ft 79 kts 94°
2026-04-28 00:07 11.14942 -60.82792 8 ft 30 kts 96°
2026-04-28 00:07 11.14919 -60.82572 8 ft 24 kts 95°
2026-04-28 00:07 11.14884 -60.82446 8 ft 15 kts 105°
2026-04-28 00:07 11.14927 -60.82456 8 ft 15 kts 259°
2026-04-28 00:08 11.14921 -60.82559 8 ft 14 kts 271°
2026-04-28 00:08 11.14927 -60.82656 8 ft 13 kts 274°
2026-04-28 00:08 11.14934 -60.82758 8 ft 15 kts 274°
2026-04-28 00:08 11.14941 -60.82862 8 ft 15 kts 274°
2026-04-28 00:09 11.14950 -60.82990 8 ft 19 kts 274°
2026-04-28 00:09 11.14962 -60.83157 8 ft 24 kts 274°
2026-04-28 00:09 11.14975 -60.83321 8 ft 24 kts 275°
2026-04-28 00:09 11.14990 -60.83498 8 ft 25 kts 275°
2026-04-28 00:10 11.15006 -60.83668 8 ft 23 kts 275°
2026-04-28 00:10 11.15063 -60.83809 8 ft 22 kts 319°
2026-04-28 00:10 11.15116 -60.83944 8 ft 21 kts 275°
2026-04-28 00:10 11.15120 -60.84003 8 ft 9 kts 274°
2026-04-28 00:11 11.15160 -60.84039 8 ft 5 kts
2026-04-28 00:11 11.15176 -60.84037 8 ft 2 kts
2026-04-28 00:11 11.15177 -60.84037 8 ft 0 kts